Location: CNYAC Observatory
(43.2150°N, 74.9500°W)
Time: 02:20:44
(UTC-04:00)

Cosmos 1975 Rocket - Visible Passes

Search period start: 22 September 2017 00:00
Search period end: 02 October 2017 00:00
Orbit: 603 x 635 km, 82.5° (Epoch: 21 September)

Date Brightness Start Highest point End Pass type
(mag) Time Alt. Az. Time Alt. Az. Time Alt. Az.
22 Sep 4.6 04:17:10 21° SE 04:19:22 33° E 04:23:21 10° NNE visible
22 Sep 4.3 05:54:23 13° WSW 05:57:17 22° WNW 06:00:47 10° NNW visible
23 Sep 3.4 04:35:18 41° SSE 04:36:37 62° E 04:40:59 10° NNE visible
23 Sep 4.9 06:12:52 10° W 06:14:55 13° WNW 06:16:58 10° NW visible
24 Sep 6.1 03:16:09 10° E 03:16:44 11° E 03:17:42 10° ENE visible
24 Sep 2.9 04:53:21 61° SW 04:53:57 70° W 04:58:21 10° N visible
25 Sep 5.5 03:34:06 19° E 03:34:06 19° E 03:36:57 10° NE visible
25 Sep 3.6 05:11:18 37° WNW 05:11:23 37° WNW 05:15:29 10° N visible
26 Sep 4.8 03:52:00 30° ENE 03:52:00 30° ENE 03:54:57 10° NNE visible
26 Sep 4.4 05:29:11 21° WNW 05:29:11 21° WNW 05:32:17 10° NNW visible
27 Sep 4.4 04:09:49 37° NNE 04:09:49 37° NNE 04:12:33 10° NNE visible
27 Sep 5.1 05:47:00 12° WNW 05:47:00 12° WNW 05:48:20 10° NW visible
28 Sep 4.4 04:27:35 30° N 04:27:35 30° N 04:29:55 10° N visible
29 Sep 6.2 03:08:08 12° NE 03:08:08 12° NE 03:08:35 10° NE visible
29 Sep 4.8 04:45:19 21° NNW 04:45:19 21° NNW 04:47:01 10° N visible
30 Sep 5.9 03:25:49 14° NNE 03:25:49 14° NNE 03:26:33 10° NNE visible
30 Sep 5.2 05:03:00 13° NNW 05:03:00 13° NNW 05:03:47 10° NNW visible
01 Oct 5.8 03:43:28 14° NNE 03:43:28 14° NNE 03:44:08 10° NNE visible
